Sugarloaf, CA

2:31 AM PDT on August 30, 2016 (GMT -0700)
Big Bear City

Weather History for KL35 - December, 2013

Change the Weather History Date:

Thursday, December 19, 2013

  Actual Average (KBUO) Record (KBUO)
Temperature  
Mean Temperature 32 °F -  
Max Temperature 35 °F 60 °F 71 °F (1999)
Min Temperature 28 °F 41 °F 41 °F (1999)
Degree Days  
Heating Degree Days 34    
Moisture  
Dew Point 25 °F    
Average Humidity 79    
Maximum Humidity 93    
Minimum Humidity 38    
Precipitation  
Precipitation 0.11 in - - ()
Sea Level Pressure  
Sea Level Pressure 29.72 in    
Wind  
Wind Speed 11 mph (West)    
Max Wind Speed 23 mph    
Max Gust Speed 28 mph    
Visibility 7 miles    
Events Snow    
Averages and records for this station are not official NWS values.
T = Trace of Precipitation, MM = Missing Value Source: NWS Daily Summary

Daily Weather History Graph

Daily Weather History Graph

Search for Another Location

Airport or City:

Trip Planner

Search our weather history database for the weather conditions in past years. The results will help you decide how hot, cold, wet, or windy it might be!

Date:

Astronomy

Dec. 19, 2013 Rise Set
Actual Time 6:48 AM PST 4:40 PM PST
Civil Twilight 6:20 AM PST 5:08 PM PST
Nautical Twilight 5:49 AM PST 5:40 PM PST
Astronomical Twilight 5:18 AM PST 6:10 PM PST
Moon 7:05 PM PST (12/19) 8:15 AM PST (12/19)
Length of Visible Light 10h 47m
Length of Day
9h 52m
Waning Gibbous, 95% of the Moon is Illuminated
Dec 19
Waning Gibbous
Dec 25
Last Quarter
Jan 1
New
Jan 7
First Quarter
Jan 15
Full

Hourly Weather History & Observations

Time (PST) Temp. Windchill Dew Point Humidity Pressure Visibility Wind Dir Wind Speed Gust Speed Precip Events Conditions
12:15 AM 33.8 °F 25.8 °F 15.8 °F 48% 29.83 in 10.0 mi West 10.4 mph - N/A   Clear
12:35 AM 33.8 °F 25.3 °F 17.6 °F 52% 29.82 in 10.0 mi West 11.5 mph 17.3 mph N/A   Clear
12:55 AM 35.6 °F 25.9 °F 12.2 °F 38% 29.80 in 10.0 mi West 16.1 mph 20.7 mph N/A   Clear
1:15 AM 33.8 °F 25.3 °F 12.2 °F 41% 29.79 in 10.0 mi West 11.5 mph 18.4 mph N/A   Clear
1:35 AM 33.8 °F 25.3 °F 12.2 °F 41% 29.78 in 10.0 mi West 11.5 mph 17.3 mph N/A   Clear
1:55 AM 33.8 °F 23.5 °F 12.2 °F 41% 29.79 in 10.0 mi WNW 16.1 mph 20.7 mph N/A   Clear
2:15 AM 33.8 °F 23.5 °F 12.2 °F 41% 29.78 in 10.0 mi West 16.1 mph 25.3 mph N/A   Clear
2:35 AM 33.8 °F 27.0 °F 12.2 °F 41% 29.78 in 10.0 mi West 8.1 mph 11.5 mph N/A   Clear
2:55 AM 33.8 °F 25.8 °F 14.0 °F 44% 29.76 in 10.0 mi West 10.4 mph 17.3 mph N/A   Clear
3:15 AM 32.0 °F 23.0 °F 19.4 °F 60% 29.76 in 10.0 mi West 11.5 mph - N/A   Clear
3:35 AM 30.2 °F 18.1 °F 23.0 °F 75% 29.75 in 10.0 mi West 18.4 mph 21.9 mph N/A   Clear
3:55 AM 30.2 °F 18.5 °F 26.6 °F 86% 29.75 in 10.0 mi West 17.3 mph 24.2 mph N/A   Clear
4:15 AM 30.2 °F 17.4 °F 26.6 °F 86% 29.75 in 10.0 mi West 20.7 mph 27.6 mph N/A   Clear
4:35 AM 30.2 °F 22.6 °F 23.0 °F 75% 29.73 in 10.0 mi WSW 8.1 mph - N/A   Clear
4:55 AM 30.2 °F 16.8 °F 23.0 °F 75% 29.73 in 10.0 mi West 23.0 mph 27.6 mph N/A   Clear
5:15 AM 30.2 °F 18.9 °F 26.6 °F 86% 29.73 in 10.0 mi West 16.1 mph - N/A   Clear
5:35 AM 30.2 °F 18.9 °F 26.6 °F 86% 29.71 in 10.0 mi West 16.1 mph 23.0 mph N/A   Clear
5:55 AM 30.2 °F 18.9 °F 26.6 °F 86% 29.70 in 10.0 mi West 16.1 mph - N/A   Clear
6:15 AM 30.2 °F 18.5 °F 26.6 °F 86% 29.70 in 10.0 mi West 17.3 mph - N/A   Clear
6:35 AM 30.2 °F 18.5 °F 26.6 °F 86% 29.70 in 10.0 mi West 17.3 mph - N/A   Clear
6:55 AM 30.2 °F 18.5 °F 26.6 °F 86% 29.72 in 10.0 mi West 17.3 mph 21.9 mph N/A   Scattered Clouds
7:15 AM 30.2 °F 20.2 °F 26.6 °F 86% 29.71 in 10.0 mi WSW 12.7 mph 17.3 mph N/A   Mostly Cloudy
7:35 AM 30.2 °F 23.4 °F 26.6 °F 86% 29.72 in 7.0 mi SW 6.9 mph - N/A   Overcast
7:55 AM 30.2 °F 21.9 °F 28.4 °F 93% 29.73 in 2.0 mi WSW 9.2 mph - N/A   Overcast
8:15 AM 32.0 °F 25.6 °F 26.6 °F 80% 29.73 in 5.0 mi WSW 6.9 mph 18.4 mph N/A   Haze
8:35 AM 32.0 °F 23.0 °F 26.6 °F 80% 29.73 in 10.0 mi West 11.5 mph - N/A   Scattered Clouds
8:55 AM 32.0 °F 21.6 °F 26.6 °F 80% 29.73 in 7.0 mi West 15.0 mph - N/A   Scattered Clouds
9:15 AM 32.0 °F 21.2 °F 28.4 °F 87% 29.73 in 7.0 mi West 16.1 mph - N/A   Scattered Clouds
9:35 AM 32.0 °F 20.5 °F 26.6 °F 80% 29.74 in 10.0 mi West 18.4 mph 25.3 mph N/A   Scattered Clouds
9:55 AM 32.0 °F 21.2 °F 28.4 °F 87% 29.73 in 10.0 mi West 16.1 mph - N/A   Mostly Cloudy
10:15 AM 32.0 °F 21.2 °F 26.6 °F 80% 29.73 in 10.0 mi West 16.1 mph 20.7 mph N/A   Mostly Cloudy
10:35 AM 33.8 °F 24.3 °F 26.6 °F 75% 29.73 in 10.0 mi West 13.8 mph 19.6 mph N/A   Scattered Clouds
10:55 AM 32.0 °F 21.2 °F 26.6 °F 80% 29.72 in 10.0 mi West 16.1 mph - N/A   Mostly Cloudy
11:15 AM 33.8 °F 24.3 °F 28.4 °F 81% 29.71 in 10.0 mi West 13.8 mph - N/A   Mostly Cloudy
11:35 AM 32.0 °F 21.2 °F 28.4 °F 87% 29.70 in 10.0 mi West 16.1 mph - N/A   Overcast
11:55 AM 33.8 °F 27.0 °F 28.4 °F 81% 29.70 in 10.0 mi SSW 8.1 mph 18.4 mph N/A   Overcast
12:15 PM 33.8 °F 27.0 °F 26.6 °F 75% 29.69 in 10.0 mi West 8.1 mph - N/A   Mostly Cloudy
12:35 PM 35.6 °F 28.6 °F 26.6 °F 70% 29.68 in 10.0 mi SW 9.2 mph 19.6 mph N/A   Mostly Cloudy
12:55 PM 33.8 °F 29.6 °F 24.8 °F 70% 29.67 in 10.0 mi WSW 4.6 mph - N/A   Scattered Clouds
1:15 PM 35.6 °F 31.7 °F 24.8 °F 65% 29.67 in 10.0 mi SW 4.6 mph - N/A   Scattered Clouds
1:35 PM 35.6 °F 29.9 °F 19.4 °F 52% 29.66 in 10.0 mi WSW 6.9 mph - N/A   Scattered Clouds
1:55 PM 33.8 °F 24.3 °F 26.6 °F 75% 29.66 in 10.0 mi West 13.8 mph - N/A   Clear
2:15 PM 33.8 °F 26.4 °F 26.6 °F 75% 29.67 in 10.0 mi West 9.2 mph - N/A   Scattered Clouds
2:35 PM 33.8 °F 28.6 °F 26.6 °F 75% 29.66 in 10.0 mi West 5.8 mph - N/A   Mostly Cloudy
2:55 PM 32.0 °F 25.6 °F 26.6 °F 80% 29.67 in 10.0 mi West 6.9 mph - N/A   Mostly Cloudy
3:15 PM 32.0 °F 25.6 °F 26.6 °F 80% 29.66 in 10.0 mi West 6.9 mph - N/A   Overcast
3:35 PM 32.0 °F 26.4 °F 28.4 °F 87% 29.66 in 2.5 mi West 5.8 mph - N/A Snow Light Snow
3:55 PM 30.2 °F - 28.4 °F 93% 29.67 in 1.0 mi Calm Calm - 0.01 in Snow Light Snow
4:15 PM 30.2 °F 24.3 °F 28.4 °F 93% 29.67 in 0.5 mi NE 5.8 mph - 0.01 in Snow Light Snow
4:35 PM 30.2 °F 21.9 °F 28.4 °F 93% 29.67 in 1.0 mi NE 9.2 mph - 0.02 in Snow Light Snow
4:55 PM 30.2 °F 24.3 °F 28.4 °F 93% 29.68 in 1.8 mi NE 5.8 mph - 0.02 in Snow Light Snow
5:15 PM 28.4 °F 19.7 °F 26.6 °F 93% 29.69 in 1.2 mi NE 9.2 mph - N/A Snow Light Snow
5:35 PM 28.4 °F 19.7 °F 26.6 °F 93% 29.70 in 1.0 mi ENE 9.2 mph - N/A Snow Snow
5:55 PM 28.4 °F 24.6 °F 26.6 °F 93% 29.70 in 0.8 mi North 3.5 mph - 0.02 in Snow Snow
6:15 PM 28.4 °F - 26.6 °F 93% 29.70 in 0.8 mi Calm Calm - 0.02 in Snow Snow
6:35 PM 28.4 °F - 26.6 °F 93% 29.71 in 1.0 mi Calm Calm - 0.03 in Snow Snow
6:55 PM 28.4 °F - 26.6 °F 93% 29.71 in 2.5 mi Calm Calm - 0.04 in Snow Light Snow
7:15 PM 28.4 °F - 26.6 °F 93% 29.71 in 1.2 mi Calm Calm - N/A Snow Light Snow
7:35 PM 28.4 °F - 26.6 °F 93% 29.71 in 1.5 mi Calm Calm - N/A Snow Light Snow
7:55 PM 28.4 °F 24.6 °F 26.6 °F 93% 29.72 in 1.5 mi East 3.5 mph - 0.01 in Snow Light Snow
8:15 PM 28.4 °F 23.3 °F 26.6 °F 93% 29.72 in 2.0 mi East 4.6 mph - N/A Snow Light Snow
8:35 PM 30.2 °F 24.3 °F 28.4 °F 93% 29.72 in 2.5 mi East 5.8 mph - N/A Snow Light Snow
8:55 PM 30.2 °F 24.3 °F 26.6 °F 86% 29.72 in 4.0 mi NE 5.8 mph - N/A Snow Light Snow
9:15 PM 30.2 °F 24.3 °F 28.4 °F 93% 29.73 in 5.0 mi NNE 5.8 mph - N/A Snow Light Snow
9:35 PM 30.2 °F 23.4 °F 28.4 °F 93% 29.73 in 5.0 mi NNE 6.9 mph - 0.01 in Snow Light Snow
9:55 PM 30.2 °F 23.4 °F 28.4 °F 93% 29.73 in 7.0 mi NNE 6.9 mph - 0.01 in   Overcast
10:15 PM 30.2 °F 24.3 °F 26.6 °F 86% 29.74 in 7.0 mi NNE 5.8 mph - N/A Snow Light Snow
10:35 PM 30.2 °F - 26.6 °F 86% 29.75 in 5.0 mi Calm Calm - N/A Snow Light Snow
10:55 PM 30.2 °F 24.3 °F 28.4 °F 93% 29.75 in 4.0 mi NE 5.8 mph - N/A Snow Light Snow
11:15 PM 30.2 °F 25.4 °F 28.4 °F 93% 29.76 in 3.0 mi NNE 4.6 mph - N/A Snow Light Snow
11:35 PM 30.2 °F 25.4 °F 28.4 °F 93% 29.76 in 5.0 mi NE 4.6 mph - N/A Snow Light Snow
11:55 PM 30.2 °F 22.6 °F 26.6 °F 86% 29.76 in 7.0 mi NNE 8.1 mph - N/A Snow Light Snow